Weather History for Kinston, NC

Change the Weather History Date:

Sunday, November 10, 2013

  Actual Average Record
Temperature  
Mean Temperature 56 °F -  
Max Temperature 71 °F 64 °F 84 °F (1979)
Min Temperature 40 °F 43 °F 24 °F (1976)
Degree Days  
Heating Degree Days 10    
Growing Degree Days 6 (Base 50)    
Moisture  
Dew Point 38 °F    
Average Humidity 65    
Maximum Humidity 96    
Minimum Humidity 27    
Precipitation  
Precipitation 0.00 in - - ()
Sea Level Pressure  
Sea Level Pressure 30.17 in    
Wind  
Wind Speed 4 mph (WSW)    
Max Wind Speed 12 mph    
Max Gust Speed 16 mph    
Visibility 10 miles    
Events      
Averages and records for this station are not official NWS values.
T = Trace of Precipitation, MM = Missing Value Source: NWS Daily Summary

Daily Weather History Graph

Daily Weather History Graph

Search for Another Location

Airport:

Trip Planner

Search our weather history database for the weather conditions in past years. The results will help you decide how hot, cold, wet, or windy it might be!

Date:

Astronomy

Nov. 10, 2013 Rise Set
Actual Time 6:40 AM EST 5:07 PM EST
Civil Twilight 6:14 AM EST 5:34 PM EST
Nautical Twilight 5:43 AM EST 6:04 PM EST
Astronomical Twilight 5:13 AM EST 6:34 PM EST
Moon 12:57 PM EST (11/10) No Moon Set
Length of Visible Light 11h 20m
Length of Day
10h 26m
First Quarter, 55% of the Moon is Illuminated
Nov 10
First Quarter
Nov 17
Full
Nov 25
Last Quarter
Dec 2
New
Dec 9
First Quarter

Hourly Weather History & Observations

Time (EST) Temp. Windchill Dew Point Humidity Pressure Visibility Wind Dir Wind Speed Gust Speed Precip Events Conditions
12:15 AM 43.3 °F - 41.0 °F 91% 30.21 in 10.0 mi Calm Calm - N/A   Clear
12:35 AM 42.1 °F - 40.1 °F 93% 30.20 in 10.0 mi Calm Calm - N/A   Clear
12:55 AM 40.8 °F - 39.6 °F 95% 30.20 in 10.0 mi Calm Calm - N/A   Clear
1:15 AM 40.3 °F - 39.2 °F 96% 30.20 in 10.0 mi Calm Calm - N/A   Clear
1:35 AM 40.3 °F 36.3 °F 39.2 °F 96% 30.20 in 10.0 mi SSW 5.8 mph - N/A   Clear
1:55 AM 41.2 °F 37.3 °F 39.9 °F 95% 30.20 in 10.0 mi SW 5.8 mph - N/A   Clear
2:15 AM 45.1 °F 41.4 °F 40.1 °F 82% 30.19 in 10.0 mi SW 6.9 mph - N/A   Clear
2:35 AM 47.3 °F - 38.5 °F 71% 30.18 in 10.0 mi SW 5.8 mph - N/A   Clear
2:55 AM 47.3 °F - 38.1 °F 70% 30.18 in 10.0 mi WSW 5.8 mph - N/A   Clear
3:15 AM 47.8 °F - 36.9 °F 66% 30.18 in 10.0 mi SW 5.8 mph - N/A   Clear
3:35 AM 47.1 °F - 36.7 °F 67% 30.18 in 10.0 mi SW 5.8 mph - N/A   Clear
3:55 AM 46.2 °F 43.3 °F 36.5 °F 69% 30.18 in 10.0 mi SW 5.8 mph - N/A   Clear
4:15 AM 45.7 °F 42.7 °F 36.3 °F 70% 30.18 in 10.0 mi SW 5.8 mph - N/A   Clear
4:35 AM 44.8 °F 42.4 °F 36.3 °F 72% 30.18 in 10.0 mi SW 4.6 mph - N/A   Clear
4:55 AM 45.9 °F 44.6 °F 35.8 °F 68% 30.18 in 10.0 mi WSW 3.5 mph - N/A   Clear
5:15 AM 45.0 °F 42.6 °F 36.0 °F 71% 30.18 in 10.0 mi WSW 4.6 mph - N/A   Clear
5:35 AM 46.2 °F 43.3 °F 35.6 °F 66% 30.19 in 10.0 mi WSW 5.8 mph - N/A   Clear
5:55 AM 46.4 °F 43.5 °F 35.6 °F 66% 30.19 in 10.0 mi WSW 5.8 mph - N/A   Clear
6:56 AM 46.4 °F 42.4 °F 35.6 °F 66% 30.20 in 10.0 mi SW 8.1 mph - N/A   Clear
7:56 AM 50.0 °F - 35.6 °F 58% 30.21 in 10.0 mi WSW 8.1 mph - N/A   Clear
8:56 AM 55.4 °F - 35.6 °F 47% 30.22 in 10.0 mi WSW 10.4 mph - N/A   Clear
9:56 AM 59.0 °F - 37.4 °F 45% 30.20 in 10.0 mi West 4.6 mph - N/A   Clear
10:56 AM 64.4 °F - 35.6 °F 34% 30.18 in 10.0 mi WNW 5.8 mph - N/A   Clear
11:56 AM 68.0 °F - 37.4 °F 33% 30.14 in 10.0 mi WSW 6.9 mph - N/A   Clear
12:56 PM 69.8 °F - 37.4 °F 31% - 10.0 mi West 6.9 mph - N/A   Clear
1:56 PM 71.6 °F - 37.4 °F 29% 30.09 in 10.0 mi WSW 9.2 mph - N/A   Clear
2:56 PM 71.6 °F - 35.6 °F 27% 30.07 in 10.0 mi WSW 10.4 mph - N/A   Clear
3:56 PM 69.8 °F - 35.6 °F 28% 30.08 in 10.0 mi WSW 6.9 mph - N/A   Clear
4:56 PM 64.4 °F - 39.2 °F 40% 30.09 in 10.0 mi SW 4.6 mph - N/A   Clear
5:56 PM 55.4 °F - 42.8 °F 63% 30.11 in 10.0 mi SW 3.5 mph - N/A   Clear
6:56 PM 51.8 °F - 44.6 °F 76% 30.13 in 10.0 mi Calm Calm - N/A   Clear
8:15 PM 49.3 °F - 42.3 °F 77% 30.14 in 10.0 mi SW 3.5 mph - N/A   Clear
8:35 PM 47.8 °F - 42.1 °F 80% 30.15 in 10.0 mi WSW 3.5 mph - N/A   Clear
8:55 PM 48.4 °F - 41.4 °F 77% 30.15 in 10.0 mi WSW 3.5 mph - N/A   Clear
8:56 PM 48.2 °F - 41.0 °F 76% 30.16 in 10.0 mi WSW 3.5 mph - N/A   Clear
9:15 PM 50.9 °F - 41.0 °F 69% 30.16 in 10.0 mi WSW 4.6 mph - N/A   Clear
9:35 PM 48.9 °F - 41.7 °F 76% 30.17 in 10.0 mi West 3.5 mph - N/A   Clear
9:55 PM 48.2 °F - 41.2 °F 77% 30.17 in 10.0 mi WNW 3.5 mph - N/A   Clear
9:56 PM 48.2 °F - 41.0 °F 76% 30.17 in 10.0 mi WNW 3.5 mph - N/A   Clear
10:15 PM 46.9 °F - 41.2 °F 80% 30.18 in 10.0 mi NW 3.5 mph - N/A   Clear
10:35 PM 47.7 °F - 40.3 °F 76% 30.19 in 10.0 mi NNW 5.8 mph - N/A   Clear
10:55 PM 53.8 °F - 36.0 °F 51% 30.19 in 10.0 mi North 6.9 mph - N/A   Clear
11:15 PM 53.4 °F - 34.7 °F 49% 30.20 in 10.0 mi North 11.5 mph - N/A   Clear
11:35 PM 52.5 °F - 34.0 °F 49% 30.22 in 10.0 mi North 10.4 mph 16.1 mph N/A   Clear
11:55 PM 52.5 °F - 33.3 °F 48% 30.22 in 10.0 mi North 10.4 mph - N/A   Clear